Location: ??
(36.7391°N, 127.5151°E)
Time: 12:39:09
(UTC+00:00)

Sich 1 Rocket - Pass Details

Date: 07 June 2020
Orbit: 616 x 653 km, 82.5° (Epoch: 14 July)

Event Time Altitude Azimuth Distance (km) Brightness Sun altitude
Rises 11:14:56 0° 350° (N) 2,979 7.8 -5.6°
Reaches altitude 10° 11:17:13 10° 348° (NNW) 2,061 7.0 -6.0°
Maximum altitude 11:21:46 70° 266° (W) 690 4.0 -6.7°
Drops below altitude 10° 11:26:15 10° 182° (S) 2,030 5.9 -7.5°
Sets 11:28:29 0° 180° (S) 2,929 6.7 -7.8°
